Location: Drocourt
(49.0571°N, 1.7669°E)
Time: 16:31:31
(UTC+00:00)

Vanguard 3 - Pass Details

Date: 14 April 2024
Orbit: 509 x 3233 km, 33.3° (Epoch: 23 May)

Event Time Altitude Azimuth Distance (km) Brightness Sun altitude
Rises 06:37:17 0° 231° (SW) 4,721 10.6 14.5°
Reaches altitude 10° 06:42:21 10° 212° (SSW) 3,151 9.9 15.3°
Maximum altitude 06:46:27 16° 179° (S) 2,293 9.6 16.0°
Drops below altitude 10° 06:49:39 10° 142° (SE) 2,342 10.3 16.5°
Sets 06:52:35 0° 119° (ESE) 2,986 11.3 17.0°
